Location: Peterborough
(44.3091°N, 78.3197°W)
Time: 08:24:16
(UTC-05:00)

A-11 Canister half - Pass Details

Date: 18 December 2023
Orbit: 1512 x 1687 km, 47.2° (Epoch: 25 February)

Event Time Altitude Azimuth Distance (km) Brightness Sun altitude
Rises 21:28:05 0° 245° (WSW) 4,658 11.9 -51.0°
Reaches altitude 10° 21:31:05 10° 245° (WSW) 3,689 11.3 -51.5°
Enters shadow 21:33:33 21° 244° (WSW) 2,917 10.6 -51.9°
